GPS BIII-2

Last updated on Sun Apr 12 2026 00:02:39 GMT+0000 (Coordinated Universal Time)

1 44506U 19056A 26100.15958704 -.00000068 00000+0 00000+0 0 9991 2 44506 55.6678 333.8482 0058952 197.5597 29.3076 2.00569137 48700
UTC large
Height (km)
Speed (km/s)
/
Latitude / Longitude
Inclination (degrees)
Orbital Period (minutes)
Azimuth
Elevation
Range (km)
Doppler Factor

Next 0 passes for location: London (51.5072 / 0.1276)

Sorry there are no passes over London.